This demonstration page uses our WeatherBlox Daily Observations layout. Learn more.

Left ArrowRight Arrow

39.92423, -83.80882

Hourly Observations for April 27, 2022

Temp ( °F °C ) Dew Point ( °F °C ) Humidity (%) Winds ( mph kmh ) Pressure ( in mb ) Visibility ( mi km ) Precip ( " mm )
12:56 am 00:56 Clear 38 3.3 34 1.1 86 86 SW 7 11 30.27 1025 10 16 0.00 0.00
1:56 am 01:56 Clear 39 3.9 33 0.6 79 79 W 5 7 30.26 1025 10 16 0.00 0.00
2:56 am 02:56 Clear 37 2.8 33 0.6 86 86 W 7 11 30.26 1025 10 16 0.00 0.00
3:56 am 03:56 Clear 35 1.7 34 1.1 96 96 WNW 6 9 30.27 1025 10 16 0.00 0.00
4:56 am 04:56 Clear 35 1.7 35 1.7 100 100 NNW 6 9 30.28 1025 10 16 0.00 0.00
5:56 am 05:56 Clear 34 1.1 34 1.1 100 100 NNW 7 11 30.29 1026 10 16 0.00 0.00
6:56 am 06:56 Sunny 32 0 32 0 100 100 NNW 7 11 30.30 1026 10 16 0.00 0.00
7:56 am 07:56 Sunny 35 1.7 30 -1.1 82 82 NW 7 11 30.32 1027 10 16 0.00 0.00
8:56 am 08:56 Sunny 38 3.3 28 -2.2 68 68 NW 12 19 30.32 1027 10 16 0.00 0.00
9:56 am 09:56 Sunny 41 5 28 -2.2 60 60 NW 10 17 30.32 1027 10 16 0.00 0.00
10:56 am 10:56 Sunny 44 6.7 28 -2.2 53 53 WNW 15 24 30.32 1027 10 16 0.00 0.00
11:56 am 11:56 Sunny 46 7.8 29 -1.7 51 51 NW 10 17 30.32 1027 10 16 0.00 0.00
12:56 pm 12:56 Sunny 48 8.9 30 -1.1 50 50 NW 13 20 30.31 1026 10 16 0.00 0.00
1:56 pm 13:56 Sunny 52 11.1 33 0.6 49 49 WNW 14 22 30.29 1026 10 16 0.00 0.00
2:56 pm 14:56 Sunny 53 11.7 33 0.6 47 47 WNW 20 31 30.27 1025 10 16 0.00 0.00
3:56 pm 15:56 Sunny 55 12.8 34 1.1 45 45 NW 18 30 30.26 1025 10 16 0.00 0.00
4:56 pm 16:56 Sunny 55 12.8 34 1.1 45 45 WNW 21 33 30.24 1024 10 16 0.00 0.00
5:56 pm 17:56 Partly Cloudy 54 12.2 34 1.1 47 47 W 16 26 30.24 1024 10 16 0.00 0.00
6:56 pm 18:56 Cloudy 53 11.7 33 0.6 47 47 NW 9 15 30.24 1024 10 16 0.00 0.00
7:56 pm 19:56 Partly Cloudy 51 10.6 33 0.6 50 50 NW 9 15 30.24 1024 10 16 0.00 0.00
8:56 pm 20:56 Partly Cloudy 48 8.9 33 0.6 56 56 NNW 7 11 30.24 1024 10 16 0.00 0.00
9:56 pm 21:56 Clear 46 7.8 34 1.1 63 63 NNE 5 7 30.25 1024 10 16 0.00 0.00
10:56 pm 22:56 Partly Cloudy 45 7.2 33 0.6 63 63 N 3 6 30.26 1025 10 16 0.00 0.00
11:56 pm 23:56 Mostly Cloudy 44 6.7 32 0 63 63 NNE 8 13 30.27 1025 10 16 0.00 0.00

Powered by AerisWeather